Flag for Brazil Weather past 2 weeks in Belém, Para, Brazil

Now
77 °F

Broken clouds.


Feels Like: 78 °F
Forecast: 75 / 85 °F
Wind: 7 mph from Southeast

Location: Belem Aeroporto

Current Time: Jan 26, 2015 at 10:25:12 AM

Latest Report: Jan 26, 2015 at 10:00 AM


Visibility: N/A

Pressure: 29.95 "Hg

Humidity: 89%

Dew point: 73 °F

Location of BelémLocation

Historic Weather in Belém — Graph

°F

Belém temperature yesterday

Maximum temperature yesterday: 86 °F (at 11:00 AM)
Minimum temperature yesterday: 75 °F (at 2:00 AM)
Average temperature yesterday: 79 °F

Past Weeks' High & Low Weather Summary

 TemperatureHumidityPressure
High90 °F (Jan 12, 1:00 PM)100% (Jan 14, 9:00 PM)29.95 "Hg (Jan 14, 9:00 PM)
Low41 °F (Jan 14, 10:00 PM)55% (Jan 12, 1:00 PM)29.74 "Hg (Jan 13, 5:00 PM)
Average79 °F84%29.87 "Hg
* Reported Jan 11 9:00 AM — Jan 26 9:00 AM, Belém, Weather by CustomWeather, © 2014

Note: Actual official high and low records may vary slightly from our data, if they occured in-between our weather recording intervals... More about our weather records

Advertising

Belém weather history for previous 24 hours

 ConditionsComfort  
Time TempWeatherWind HumidityBarometerVisibility
9:00 AM
Jan 26
77 °FBroken clouds.6 mph89%29.89 "HgN/A
8:00 AM75 °FBroken clouds.5 mph94%29.92 "HgN/A
7:00 AM75 °FBroken clouds.5 mph94%29.89 "HgN/A
6:00 AM75 °FPassing clouds.5 mph94%29.89 "HgN/A
5:00 AM75 °FPassing clouds.5 mph94%29.89 "HgN/A
4:00 AM75 °FPassing clouds.5 mph94%29.86 "HgN/A
3:00 AM75 °FPassing clouds.5 mph94%29.86 "HgN/A
2:00 AM75 °FPassing clouds.3 mph94%29.89 "HgN/A
1:00 AM75 °FPassing clouds.5 mph94%29.89 "HgN/A
12:00 AM75 °FPassing clouds.2 mph94%29.89 "HgN/A
11:00 PM
Jan 25
77 °FPassing clouds.6 mph89%29.92 "HgN/A
10:00 PM77 °FPassing clouds.5 mph89%29.89 "HgN/A
9:00 PM77 °FPartly cloudy.5 mph89%29.86 "HgN/A
8:00 PM77 °FPassing clouds.17 mph94%29.86 "HgN/A
7:00 PM77 °FPassing clouds.2 mph94%29.83 "HgN/A
6:00 PM75 °FLight rain. Partly sunny.3 mph100%29.80 "HgN/A
5:00 PM75 °FStrong thunderstorms. Broken clouds.9 mph94%29.80 "Hg1 mi
4:00 PM82 °FPartly sunny.7 mph79%29.77 "HgN/A
3:00 PM82 °FPartly sunny.7 mph84%29.77 "HgN/A
2:08 PM82 °FRain. Partly sunny.12 mph79%29.80 "Hg2 mi
2:00 PM84 °FScattered showers. Partly sunny.10 mph74%29.80 "HgN/A
1:00 PM86 °FScattered showers. Partly sunny.7 mph70%29.86 "HgN/A
12:00 PM86 °FPartly sunny.8 mph62%29.89 "HgN/A
11:00 AM86 °FScattered clouds.13 mph62%29.89 "HgN/A
10:00 AM84 °FScattered clouds.12 mph70%29.89 "HgN/A
Weather by CustomWeather, © 2014

See weather overviewHow to use our weather pages